Temp
86 86 86 86 86 87 87 87 88 88 86 88 87 87 87 88 89 89 90 88 88 89 88 88 88 88 90 89 88 85 82 86 84 86 87 89 88 89 91 90 91 87
86 87 86 87 85 86 87 88 88 87 86 86 87 88 89 89 90 90 89 89 89 89 88 89 88 87 88 88 87 87 85 86 86 90 87 88 87 89 91 91 91 90
86 88 88 88 88 87 90 89 87 87 88 88 88 88 89 91 90 89 88 89 88 90 88 88 88 87 89 89 87 87 87 86 86 89 83 86 89 86 88 92 91 90
87 88 89 90 89 89 90 88 87 87 89 88 87 90 90 93 90 89 88 89 88 88 89 89 88 89 88 88 87 87 88 86 88 86 85 86 87 89 89 88 89 87
88 88 89 90 89 88 89 90 89 90 89 89 91 88 87 87 88 90 88 88 88 88 88 88 89 89 88 87 87 86 87 87 88 86 86 86 87 88 89 89 89 90
89 88 88 87 86 87 89 89 89 91 90 90 90 90 90 88 89 90 89 89 90 90 90 90 89 90 90 88 87 86 88 89 89 87 86 86 88 89 92 88 90 88
90 90 89 90 89 88 89 89 90 90 90 90 91 89 90 89 90 89 89 90 91 89 91 88 87 88 88 87 86 86 87 87 87 87 86 86 86 87 90 89 88 88
90 91 91 90 91 90 89 91 92 90 90 88 91 90 91 92 91 92 91 91 91 90 89 90 87 87 91 89 87 86 87 91 89 86 85 86 86 86 87 89 88 86
91 91 91 90 91 90 92 92 91 92 91 90 91 92 91 91 92 92 89 89 89 90 89 89 88 89 89 89 87 87 86 89 92 88 87 86 86 86 87 88 87 87
90 91 92 91 92 92 92 92 92 92 92 93 91 94 92 92 93 93 90 88 89 88 88 88 88 89 89 90 88 88 87 87 87 86 87 88 88 88 89 88 88 87
92 93 92 92 92 92 91 92 91 93 91 92 94 91 93 92 91 92 90 89 91 90 89 89 89 89 89 90 91 90 89 89 88 87 87 87 88 88 89 87 87 87
91 92 93 93 93 94 94 94 93 92 92 93 93 93 91 93 91 92 91 89 90 90 90 89 89 89 88 88 91 92 90 89 89 88 89 89 89 90 89 89 89 87
91 92 92 93 93 94 95 95 94 93 91 91 93 93 92 91 92 91 90 90 89 90 91 89 89 89 87 88 89 89 90 88 90 88 88 89 89 90 91 91 91 91
88 89 90 90 91 90 92 95 96 96 94 92 90 91 94 94 91 87 88 90 90 91 90 88 88 89 88 88 88 89 90 89 88 86 87 87 89 90 91 92 92 92
87 89 90 90 89 89 90 91 93 93 93 93 91 92 95 94 92 85 86 88 89 87 89 87 88 89 89 88 88 88 89 89 89 87 87 86 88 90 91 91 93 94
88 87 89 89 89 90 90 89 91 93 95 94 93 93 92 92 92 92 91 88 86 87 88 90 89 89 87 85 86 88 88 90 88 85 85 86 87 87 90 92 94 95
77 85 89 87 86 84 84 86 89 92 90 88 90 91 90 89 91 92 93 94 92 90 88 91 90 82 73 74 78 82 89 86 84 82 83 82 85 86 85 89 91 92
70 69 72 73 72 75 76 74 76 78 77 75 74 75 76 82 87 88 87 88 90 91 92 84 75 66 64 66 69 70 77 85 89 87 88 86 87 88 88 88 89 91
72 71 72 73 73 74 77 77 79 78 76 75 75 76 79 79 79 81 80 81 83 82 81 81 76 64 64 65 65 66 68 79 88 90 90 90 89 89 87 86 86 87
72 72 72 73 74 76 78 78 77 76 76 76 76 76 76 76 78 78 79 80 80 81 80 77 73 63 61 63 63 64 66 73 86 87 88 89 87 89 90 87 83 81
74 74 72 72 72 73 74 74 75 75 76 75 76 76 77 76 76 77 77 77 79 81 81 77 71 59 60 61 62 63 64 73 84 87 87 87 88 87 80 81 81 82
73 74 75 75 72 71 72 73 73 76 76 76 75 75 75 76 78 78 77 77 78 80 78 75 70 58 58 59 60 61 67 81 85 85 86 87 87 82 81 80 81 80
75 74 74 74 73 72 74 75 75 76 75 76 75 74 73 72 73 74 75 76 76 77 77 73 71 61 57 57 59 59 70 81 82 83 84 85 83 81 80 80 80 79
73 74 74 74 75 74 74 74 74 74 74 75 73 73 72 73 73 74 73 72 73 73 75 74 71 63 56 56 57 58 68 78 81 82 82 80 80 80 79 78 79 80
71 71 71 72 72 72 73 72 72 72 73 74 73 73 73 73 73 73 73 72 72 72 74 71 70 66 57 56 57 58 65 76 79 79 78 78 78 79 78 78 75 75
70 70 70 70 70 71 72 72 73 72 72 72 72 72 72 71 71 71 70 70 71 71 71 72 69 67 62 55 56 57 60 74 77 74 74 75 76 75 75 75 76 75
MSLP
1017.53 1017.57 1017.85 1017.89 1017.97 1017.93 1018.13 1018.41 1018.45 1018.61 1018.69 1018.65 1018.97 1018.89 1018.81 1018.65 1018.41 1018.53 1018.73 1018.89 1019.05 1019.17 1019.33 1019.41 1019.45 1019.61 1019.61 1019.65 1019.77 1020.13 1020.33 1020.45 1020.45 1020.41 1020.49 1020.57 1020.73 1020.81 1020.97 1020.85 1020.61 1020.57
1017.41 1017.41 1017.57 1017.65 1017.93 1017.93 1017.93 1017.97 1018.21 1018.37 1018.57 1018.57 1018.53 1018.49 1018.45 1018.45 1018.45 1018.49 1018.77 1018.93 1019.01 1019.17 1019.21 1019.37 1019.49 1019.57 1019.65 1019.73 1019.89 1020.13 1020.29 1020.33 1020.57 1020.17 1020.53 1020.65 1020.69 1020.61 1020.73 1020.61 1020.53 1020.25
1017.25 1017.33 1017.53 1017.77 1017.93 1018.05 1017.89 1017.81 1017.97 1018.21 1018.37 1018.41 1018.41 1018.37 1018.49 1018.33 1018.57 1018.57 1018.65 1018.85 1019.05 1019.13 1019.25 1019.33 1019.45 1019.53 1019.57 1019.61 1019.77 1020.01 1020.21 1020.37 1020.53 1020.25 1020.57 1020.73 1020.53 1020.69 1020.61 1020.45 1020.49 1020.57
1017.13 1017.13 1017.21 1017.33 1017.45 1017.69 1017.65 1017.85 1017.97 1018.13 1018.01 1018.41 1018.57 1018.33 1018.33 1018.21 1018.37 1018.69 1018.77 1018.85 1019.05 1019.09 1019.13 1019.25 1019.37 1019.45 1019.57 1019.61 1019.77 1019.97 1020.01 1020.13 1020.09 1020.21 1020.61 1020.49 1020.45 1020.49 1020.53 1020.49 1020.57 1020.93
1016.89 1017.01 1016.93 1017.05 1017.25 1017.33 1017.49 1017.69 1018.01 1017.93 1018.05 1018.01 1018.05 1018.17 1018.33 1018.41 1018.53 1018.61 1018.85 1018.97 1018.97 1019.13 1019.13 1019.29 1019.29 1019.37 1019.45 1019.61 1019.77 1020.09 1020.01 1020.21 1020.01 1020.13 1020.45 1020.61 1020.45 1020.45 1020.41 1020.29 1020.45 1020.65
1016.57 1016.73 1016.81 1017.09 1017.25 1017.45 1017.61 1017.77 1017.81 1017.73 1017.89 1018.05 1018.05 1018.01 1018.17 1018.25 1018.37 1018.49 1018.73 1018.89 1018.93 1019.05 1019.09 1019.13 1019.33 1019.29 1019.33 1019.53 1019.73 1019.97 1019.93 1020.05 1019.85 1020.01 1020.41 1020.65 1020.53 1020.17 1020.13 1020.37 1020.41 1020.65
1016.61 1016.61 1016.81 1016.77 1017.17 1017.25 1017.45 1017.49 1017.45 1017.45 1017.69 1017.81 1017.61 1018.01 1017.97 1018.29 1018.29 1018.41 1018.45 1018.65 1018.69 1018.89 1018.97 1019.13 1019.29 1019.33 1019.25 1019.41 1019.69 1019.93 1019.89 1019.89 1019.93 1020.01 1020.37 1020.45 1020.41 1020.45 1020.13 1020.17 1020.29 1020.53
1016.37 1016.45 1016.57 1016.69 1016.97 1017.09 1017.37 1017.29 1017.29 1017.49 1017.53 1017.65 1017.85 1017.69 1017.65 1017.93 1018.17 1018.21 1018.25 1018.41 1018.53 1018.65 1018.81 1019.01 1019.13 1019.25 1019.17 1019.29 1019.73 1019.89 1019.93 1019.69 1019.89 1020.13 1020.33 1020.37 1020.33 1020.45 1020.33 1020.17 1020.17 1020.45
1016.13 1016.41 1016.53 1016.73 1016.89 1017.09 1017.09 1017.13 1017.25 1017.25 1017.21 1017.61 1017.65 1017.57 1017.53 1017.65 1017.85 1017.97 1018.25 1018.41 1018.53 1018.53 1018.65 1018.85 1019.01 1019.09 1019.05 1019.17 1019.49 1019.69 1019.89 1019.73 1019.41 1019.73 1020.01 1020.21 1020.29 1020.33 1020.25 1020.05 1020.25 1020.33
1016.17 1016.21 1016.45 1016.65 1016.89 1016.93 1017.01 1016.93 1017.09 1017.09 1017.09 1017.25 1017.49 1017.17 1017.57 1017.45 1017.45 1017.65 1017.93 1018.29 1018.49 1018.65 1018.77 1018.85 1018.93 1018.93 1019.01 1019.01 1019.25 1019.41 1019.61 1019.73 1019.65 1019.73 1019.81 1019.81 1019.93 1019.89 1019.89 1019.93 1020.01 1020.17
1016.09 1016.13 1016.29 1016.45 1016.57 1016.65 1016.97 1016.93 1016.93 1017.01 1017.13 1017.17 1017.13 1017.45 1017.45 1017.53 1017.61 1017.57 1017.93 1018.21 1018.45 1018.57 1018.69 1018.73 1018.77 1018.85 1018.97 1018.93 1018.85 1018.93 1019.21 1019.41 1019.49 1019.57 1019.65 1019.69 1019.65 1019.65 1019.69 1019.77 1019.85 1020.05
1015.97 1016.09 1016.17 1016.29 1016.33 1016.29 1016.37 1016.49 1016.69 1016.93 1017.05 1017.01 1017.05 1017.21 1017.45 1017.37 1017.69 1017.73 1017.93 1018.25 1018.33 1018.33 1018.49 1018.61 1018.61 1018.73 1018.81 1018.85 1018.81 1018.77 1018.93 1019.17 1019.29 1019.37 1019.37 1019.41 1019.41 1019.41 1019.45 1019.41 1019.61 1019.65
1015.97 1016.01 1016.05 1016.09 1016.13 1016.09 1015.97 1016.09 1016.45 1016.69 1016.97 1017.17 1016.97 1017.17 1017.45 1017.77 1017.77 1017.85 1018.05 1018.25 1018.33 1018.25 1018.45 1018.57 1018.61 1018.69 1018.81 1018.81 1018.85 1018.89 1018.97 1019.17 1019.25 1019.37 1019.41 1019.33 1019.29 1019.33 1019.21 1019.21 1019.17 1019.25
1016.05 1015.89 1015.97 1015.97 1015.89 1016.01 1016.01 1016.01 1016.09 1016.17 1016.41 1016.65 1016.85 1017.17 1017.17 1017.29 1017.81 1018.05 1018.33 1018.21 1018.25 1018.25 1018.37 1018.53 1018.69 1018.73 1018.77 1018.85 1018.85 1018.85 1018.85 1019.05 1019.21 1019.53 1019.61 1019.57 1019.37 1019.13 1019.01 1018.97 1018.89 1018.85
1016.25 1016.05 1015.93 1015.97 1016.05 1016.13 1016.29 1016.33 1016.21 1016.21 1016.25 1016.41 1016.69 1017.01 1016.93 1016.97 1017.33 1017.97 1018.41 1018.41 1018.25 1018.33 1018.41 1018.73 1018.93 1018.81 1018.73 1018.77 1018.97 1018.97 1018.89 1019.05 1019.13 1019.41 1019.57 1019.81 1019.57 1019.17 1018.85 1018.73 1018.65 1018.53
1016.57 1016.49 1016.33 1016.29 1016.41 1016.53 1016.57 1016.57 1016.57 1016.41 1016.33 1016.49 1016.61 1016.69 1016.77 1016.81 1016.93 1017.21 1017.65 1018.13 1018.41 1018.49 1018.41 1018.37 1018.65 1018.69 1018.69 1018.77 1018.77 1018.85 1018.93 1018.89 1019.01 1019.21 1019.37 1019.41 1019.37 1019.29 1019.05 1018.77 1018.57 1018.33
1018.65 1017.49 1017.01 1017.09 1017.25 1017.45 1017.65 1017.37 1017.13 1016.85 1016.93 1017.13 1017.05 1017.05 1017.21 1017.09 1017.13 1017.33 1017.37 1017.41 1017.77 1018.09 1018.45 1018.29 1018.57 1019.01 1019.13 1018.73 1018.49 1018.45 1018.49 1018.77 1019.01 1019.13 1019.17 1019.21 1019.37 1019.33 1019.41 1019.05 1018.73 1018.45
1019.53 1019.69 1019.61 1019.45 1019.69 1019.41 1019.05 1018.45 1018.25 1018.41 1018.57 1018.61 1018.69 1018.61 1018.57 1018.21 1018.01 1017.93 1018.05 1018.01 1017.93 1017.97 1018.05 1018.89 1019.81 1020.13 1019.69 1019.45 1019.13 1019.05 1018.93 1018.73 1018.65 1018.89 1018.97 1019.09 1019.13 1019.01 1018.97 1018.93 1018.89 1018.65
1018.69 1018.73 1019.57 1020.05 1019.85 1019.49 1019.13 1019.13 1018.73 1018.73 1018.81 1018.97 1019.13 1019.05 1018.93 1018.97 1019.13 1018.85 1018.97 1018.89 1018.93 1019.09 1019.33 1019.45 1019.97 1020.41 1020.09 1019.81 1019.65 1019.53 1019.37 1019.05 1018.73 1018.61 1018.85 1018.89 1018.77 1018.73 1018.77 1018.85 1018.73 1018.81
1018.69 1018.57 1018.73 1019.05 1019.45 1019.53 1019.09 1019.01 1019.13 1019.29 1019.25 1019.17 1019.17 1019.13 1019.13 1019.25 1019.09 1019.17 1019.13 1019.21 1019.29 1019.25 1019.41 1019.85 1020.25 1020.49 1020.29 1019.97 1019.77 1019.61 1019.49 1019.33 1019.09 1019.05 1019.01 1019.01 1019.01 1018.85 1018.77 1018.97 1019.25 1019.41
1018.49 1018.69 1018.77 1018.93 1019.13 1019.45 1019.65 1019.61 1019.45 1019.29 1019.25 1019.25 1019.29 1019.21 1019.17 1019.29 1019.25 1019.29 1019.49 1019.73 1019.65 1019.37 1019.49 1020.01 1020.61 1020.73 1020.45 1020.17 1019.93 1019.73 1019.53 1019.41 1019.21 1019.09 1019.09 1019.05 1018.97 1019.05 1019.45 1019.37 1019.41 1019.49
1018.33 1018.45 1018.57 1018.77 1019.29 1019.57 1019.85 1020.05 1019.81 1019.49 1019.45 1019.25 1019.25 1019.41 1019.45 1019.41 1019.25 1019.29 1019.61 1019.77 1019.65 1019.57 1019.85 1020.33 1020.85 1020.93 1020.77 1020.53 1020.29 1020.01 1019.69 1019.41 1019.13 1019.17 1019.17 1019.09 1019.05 1019.45 1019.49 1019.53 1019.45 1019.61
1018.17 1018.41 1018.65 1018.89 1019.29 1019.77 1019.97 1020.05 1020.05 1019.61 1019.41 1019.17 1019.37 1019.57 1019.77 1019.89 1019.89 1019.89 1019.81 1019.89 1020.05 1020.05 1020.13 1020.65 1020.97 1021.13 1020.89 1020.77 1020.57 1020.37 1019.93 1019.61 1019.49 1019.41 1019.33 1019.37 1019.49 1019.65 1019.77 1019.73 1019.77 1019.77
1018.37 1018.33 1018.57 1018.73 1018.93 1019.29 1019.61 1019.85 1019.85 1019.77 1019.73 1019.53 1019.73 1019.93 1020.13 1020.17 1020.05 1020.09 1020.21 1020.29 1020.41 1020.61 1020.49 1020.85 1021.09 1021.17 1020.93 1020.73 1020.65 1020.49 1020.21 1019.93 1019.69 1019.69 1019.73 1019.93 1020.01 1019.93 1019.89 1020.01 1019.93 1019.89
1018.93 1018.81 1018.97 1019.17 1019.37 1019.49 1019.65 1019.85 1019.93 1019.89 1019.77 1019.69 1019.81 1019.97 1020.21 1020.13 1020.09 1020.21 1020.29 1020.37 1020.37 1020.45 1020.49 1020.85 1021.21 1021.33 1021.17 1020.89 1020.69 1020.53 1020.25 1019.97 1019.89 1020.01 1020.29 1020.33 1020.21 1020.13 1020.01 1020.13 1020.29 1020.21
1019.41 1019.29 1019.33 1019.61 1019.81 1019.85 1019.85 1020.01 1020.01 1019.97 1019.97 1019.97 1019.97 1020.13 1020.49 1020.53 1020.45 1020.49 1020.69 1020.81 1020.69 1020.81 1021.01 1021.09 1021.37 1021.61 1021.57 1021.29 1020.93 1020.65 1020.41 1020.17 1020.21 1020.61 1020.85 1020.77 1020.61 1020.73 1020.81 1020.65 1020.45 1020.49
Wind_Speed
6 5 5 6 5 5 6 5 5 6 5 5 5 5 4 4 3 4 5 4 5 3 3 2 3 2 3 1 2 4 1 2 2 2 2 1 1 2 0 2 2 2
6 6 5 5 4 2 4 5 5 4 4 2 3 4 3 3 4 3 4 4 4 4 3 4 3 3 3 3 2 2 3 2 3 2 0 1 3 2 1 2 2 1
7 7 8 8 7 7 8 6 4 4 5 5 4 3 4 4 4 3 3 3 4 5 4 4 4 3 3 2 3 3 3 2 2 1 2 3 1 2 2 2 3 3
7 7 8 8 7 7 6 5 6 5 5 6 6 6 5 5 4 6 3 5 4 3 5 4 4 4 4 3 3 3 3 2 2 4 3 3 2 2 2 3 2 6
10 8 6 6 4 4 5 6 7 7 5 5 7 5 5 3 4 6 5 5 3 4 4 4 4 4 4 3 3 3 3 4 4 3 2 1 2 2 3 3 0 1
8 7 6 7 5 5 5 6 6 7 6 5 6 6 6 3 4 5 7 7 7 6 6 6 6 5 5 4 3 4 3 4 4 4 3 3 3 3 3 2 2 2
10 8 9 8 10 7 7 7 7 5 7 5 3 6 6 7 6 5 5 6 7 6 7 5 4 4 4 3 4 4 3 2 2 2 2 3 3 3 4 3 2 2
10 9 8 7 9 10 8 7 6 6 4 5 6 3 5 7 6 6 5 5 6 6 5 4 6 4 6 4 4 4 4 5 5 3 2 3 2 2 2 4 2 3
9 9 8 7 8 7 9 7 6 7 7 8 9 8 5 5 7 8 5 4 5 3 2 3 3 5 4 3 4 5 5 6 4 4 5 4 4 4 4 3 3 3
9 9 11 11 10 7 8 8 7 8 5 6 7 7 7 7 6 6 6 5 4 5 5 5 5 4 5 5 4 5 5 5 3 1 3 4 3 4 5 4 3 3
10 10 10 11 10 9 11 10 9 6 6 7 6 6 6 7 4 3 3 4 6 5 5 4 4 4 4 6 5 4 4 5 3 4 5 4 5 3 4 3 3 3
9 9 9 10 10 9 10 10 7 8 7 7 7 5 3 4 4 5 4 5 5 5 5 4 4 4 3 4 5 5 4 4 4 4 4 4 4 4 5 4 4 4
7 8 7 9 8 8 8 7 9 10 9 8 7 6 7 6 4 3 3 5 5 4 5 4 3 5 4 4 4 4 3 3 4 4 4 4 5 6 5 5 5 4
4 3 5 4 4 4 4 6 6 6 7 7 3 3 5 6 8 2 3 6 5 5 3 1 5 4 3 2 3 4 4 3 2 4 5 5 6 5 5 6 6 7
4 3 2 3 2 3 4 4 4 4 4 4 6 7 8 8 9 9 5 3 1 3 2 5 5 5 2 2 3 4 3 4 2 5 5 6 6 7 7 6 5 6
3 3 2 1 2 2 1 3 5 4 4 4 3 4 3 2 3 7 9 8 6 5 4 3 2 2 3 8 9 5 5 4 1 1 3 5 6 3 6 6 7 7
15 7 3 2 5 9 10 7 6 3 5 8 6 6 4 3 3 2 3 4 8 9 6 8 4 4 15 12 12 11 7 4 3 3 1 4 7 4 3 5 5 6
3 11 14 9 7 5 4 4 6 9 9 9 8 9 11 13 9 7 8 9 7 8 4 8 7 10 11 14 11 9 8 3 4 5 5 6 8 5 4 3 5 6
1 6 4 4 6 6 2 1 3 5 7 7 6 6 7 7 6 7 8 8 8 8 8 7 8 12 12 12 11 11 10 9 5 4 5 6 5 3 4 5 6 3
4 3 4 5 4 4 6 7 6 7 7 6 4 2 2 3 5 5 4 5 5 5 6 9 8 11 12 12 11 11 10 7 4 5 5 6 5 7 8 6 9 7
2 2 4 5 5 6 8 6 5 5 4 3 2 2 2 4 5 5 5 5 5 4 7 8 7 13 13 13 12 11 11 6 4 4 5 4 6 5 6 5 4 5
4 3 5 6 7 4 5 4 2 5 4 3 4 2 4 4 3 4 4 3 4 5 6 8 8 13 13 13 13 13 11 5 4 3 3 4 2 7 6 5 5 6
6 6 6 7 8 8 5 3 3 6 6 5 6 6 6 7 6 6 6 5 5 5 6 8 8 11 13 13 13 14 8 5 5 4 4 4 4 6 6 7 7 6
5 5 5 5 5 6 6 5 5 6 6 5 6 6 6 7 7 7 7 6 8 9 9 8 7 8 11 11 12 13 9 5 4 4 4 3 3 3 5 5 9 14
6 7 8 8 8 8 6 7 7 6 6 6 7 7 7 6 5 6 8 7 6 6 9 8 6 8 11 11 12 12 9 4 4 4 4 4 3 3 5 4 5 8
7 8 9 8 8 8 7 6 5 6 6 6 7 6 6 5 5 6 7 6 7 6 6 6 6 6 8 11 13 14 13 7 7 6 5 5 5 4 4 3 3 4
Wind_Direction
172 156 167 169 172 182 164 175 180 181 188 183 183 199 199 177 215 159 171 160 187 184 165 178 174 180 202 105 127 120 295 153 137 273 256 229 206 226 23 307 342 283
180 166 169 164 135 134 175 178 184 178 166 142 211 175 197 176 197 172 172 179 173 188 172 177 186 190 218 177 164 190 173 188 188 222 135 186 224 247 236 216 233 180
186 168 178 169 168 179 183 188 144 180 171 178 217 164 193 189 183 193 177 179 188 187 183 181 187 193 214 188 168 198 175 201 234 125 132 277 266 197 253 257 187 298
173 186 180 180 173 184 178 183 166 185 187 162 185 181 203 184 177 182 177 199 189 196 179 191 194 187 199 192 181 219 195 191 220 136 212 200 260 286 225 199 228 165
180 180 197 165 159 200 185 184 188 180 201 179 183 165 196 177 201 179 185 190 199 196 193 190 195 202 182 185 179 229 210 189 215 175 206 217 239 227 243 242 153 326
175 178 191 147 167 205 172 206 192 197 188 189 197 159 188 178 202 196 178 194 192 203 199 198 191 205 192 182 190 209 229 211 201 177 193 213 248 237 262 303 209 223
181 181 191 170 174 191 197 200 190 199 165 205 198 181 178 187 192 202 182 195 195 199 206 191 189 200 194 174 195 201 243 262 60 169 206 222 210 256 277 244 188 239
183 182 191 190 186 180 198 196 186 180 183 177 210 207 196 188 194 193 202 195 209 193 188 194 183 216 202 184 195 202 220 218 193 179 213 237 258 260 222 267 260 200
188 181 188 204 197 190 202 188 204 192 190 185 196 189 190 213 190 194 175 191 225 210 183 165 198 195 214 205 197 200 213 241 227 185 202 215 219 214 243 233 241 239
190 185 189 194 200 203 208 190 200 197 196 211 219 187 191 203 196 197 166 191 203 165 216 187 191 199 205 215 199 206 210 227 229 303 266 244 247 240 216 233 243 244
189 197 197 193 197 197 195 208 192 183 198 222 220 213 191 196 188 200 181 177 208 197 202 208 190 208 214 227 216 203 210 229 230 209 218 223 244 263 273 264 230 243
190 197 203 200 205 206 201 193 191 200 194 204 217 203 192 217 185 203 199 185 211 209 201 201 209 213 226 239 240 225 198 219 234 237 246 247 248 242 237 238 258 241
197 196 202 207 205 213 208 200 188 193 167 217 203 217 198 177 225 209 162 191 217 240 218 210 217 213 224 223 237 242 243 251 247 245 243 242 239 251 259 253 239 260
241 201 205 216 203 203 239 215 215 208 193 172 184 244 248 199 169 142 182 213 223 222 201 186 236 236 225 231 269 259 237 219 219 326 293 281 266 261 250 256 246 239
230 256 249 206 216 173 200 250 248 218 206 196 177 200 209 220 158 164 228 243 297 294 234 180 235 234 249 248 225 262 263 254 214 213 244 251 241 240 243 236 252 257
239 270 272 284 309 258 205 203 246 259 227 211 210 208 235 238 235 166 180 177 209 210 221 217 243 287 213 223 247 222 231 246 251 296 299 300 284 275 282 276 272 273
330 308 311 18 15 14 349 346 343 307 350 1 347 341 329 351 321 295 271 233 197 185 190 215 146 21 334 272 218 212 210 197 227 231 234 291 298 301 298 292 293 299
26 10 351 9 340 5 347 344 10 3 29 37 26 11 356 350 345 360 4 354 342 334 350 54 67 16 12 14 18 7 350 312 209 210 221 214 224 236 266 288 293 293
31 85 81 15 357 317 305 293 45 50 52 47 33 13 346 353 354 22 45 35 32 48 63 57 46 11 15 23 17 13 6 351 308 293 297 301 312 288 234 232 245 280
56 129 120 101 71 8 33 42 53 57 70 78 73 3 42 45 14 20 22 41 46 55 67 59 39 8 7 12 14 9 4 349 337 316 305 290 303 305 329 6 34 39
159 162 86 87 81 24 19 33 36 68 69 58 53 48 23 67 53 30 32 35 24 39 68 61 43 13 14 5 10 1 351 332 307 310 309 317 305 15 52 43 39 59
145 86 87 112 111 78 354 343 2 46 64 93 102 78 31 17 32 33 41 44 45 62 72 68 45 21 11 10 3 2 340 319 295 275 287 285 344 47 40 54 52 39
109 112 116 100 110 132 158 119 56 65 54 60 79 75 71 56 52 48 49 68 58 32 62 72 49 19 18 15 7 1 349 338 327 321 303 335 28 54 49 49 51 49
59 86 93 102 120 117 99 81 77 69 74 70 74 74 71 67 65 68 68 56 40 35 44 62 51 27 24 21 17 6 349 340 333 315 339 11 350 30 64 51 57 56
66 68 69 73 76 80 78 76 70 80 78 74 75 78 77 80 83 76 84 88 92 78 73 68 46 27 21 22 24 19 4 331 352 12 14 6 2 24 57 65 84 63
71 71 67 68 72 72 72 67 69 75 82 80 74 68 61 55 69 77 73 71 68 68 59 62 73 50 20 20 28 27 17 14 40 29 29 32 45 46 59 30 66 94